Location: Conway
(43.9790°N, 71.1210°W)
Time: 09:00:26
(UTC-04:00)

ISS - Visible Passes

Search period start: 21 October 2019 00:00
Search period end: 31 October 2019 00:00
Orbit: 411 x 421 km, 51.6° (Epoch: 21 October)

Date Brightness Start Highest point End Pass type
(mag) Time Alt. Az. Time Alt. Az. Time Alt. Az.
23 Oct -0.9 06:14:03 10° S 06:16:25 18° SE 06:18:47 10° E visible
24 Oct -0.5 05:27:14 10° SE 05:28:03 11° SE 05:28:51 10° ESE visible
25 Oct -2.7 06:12:28 10° SW 06:15:41 45° SE 06:18:56 10° ENE visible
26 Oct -1.9 05:25:33 18° S 05:27:12 27° SE 05:30:06 10° ENE visible
27 Oct -0.9 04:39:33 15° ESE 04:39:33 15° ESE 04:40:58 10° E visible
27 Oct -3.8 06:12:29 15° WSW 06:15:08 72° NNW 06:18:30 10° NE visible
28 Oct -3.7 05:26:18 68° S 05:26:30 71° SE 05:29:52 10° ENE visible
29 Oct -1.0 04:39:58 19° ENE 04:39:58 19° ENE 04:41:07 10° ENE visible
29 Oct -3.0 06:12:52 20° WNW 06:14:41 36° NNW 06:17:51 10° NE visible
30 Oct -3.1 05:26:26 46° N 05:26:26 46° N 05:29:15 10° NE visible
